Погода в Верхнем Тагиле

Россия / Свердловская область     57°22′18″N   59°56′02″E
темп.,
°C
ветер,
м/с
пор.,
м/с
влажн.,
%
обл.,
%
осадки,
мм/ч
давл.,
гПа
погр.,
м
25 февраля, чт
чт2523:00−26с6169483 0.0 1026439
02:00−28с4129631 0.0 1028302
05:00−29с3109842 0.0 1029217
08:00−29зсз129990 0.0 102919
11:00−23з239287 0.0 1029213
14:00−17зсз248693 0.0 1028557
17:00−17зсз358897 0.1 1028520
20:00−23з229733 0.0 102832
26 февраля, пт
пт2623:00−25з229717 0.0 102921
02:00−26зюз22970 0.0 102819
05:00−26зюз12970 0.0 102919
08:00−27юз119514 0.0 102819
11:00−19ююз128429 0.0 1027231
14:00−14ююв23750 0.0 1025585
17:00−15юв348818 0.0 1024542
20:00−22юв2210083 0.0 102322
27 февраля, сб
сб2723:00−26юв129956 0.0 102319
02:00−27вюв12991 0.0 102119
05:00−28вюв229913 0.0 102025
08:00−29в2210095 0.0 101854
11:00−21вюв4139697 0.0 1016418
14:00−19вюв61294100 0.0 1014530
17:00−20вюв61297100 0.3 1013608
20:00−20вюв51197100 0.8 1012724
28 февраля, вс
вс2823:00−19вюв41096100 1.3 1011607
02:00−19в4997100 0.3 1010480
05:00−20всв4898100 0.9 1009410
08:00−20св4898100 0.7 1009381
11:00−19св4896100 1.2 1010363
14:00−16св4893100 0.3 1010429
17:00−16св4895100 0.5 1010429
20:00−18св4996100 0.3 1012417
1 марта, пн
пн123:00−19св4897100 0.6 1014392
02:00−20ссв4897100 0.3 1015354
05:00−21ссв3698100 0.6 1016284
08:00−22ссв3598100 0.2 1017222
11:00−19св2292100 0.4 1016240
14:00−12ссв0186100 0.0 1015351
17:00−11зюз1387100 0.1 1014449
20:00−16з239791 0.0 101339